Météo par heure à Dakar

Ce jour, 13 Avril, Mardi

Heure Température Précipitation Vent Pression Humidité
00:00 +24°C° 0 mm 8 m/s 757 mmHg 63%
01:00 +23°C° 0 mm 8 m/s 757 mmHg 65%
02:00 +23°C° 0 mm 7 m/s 757 mmHg 66%
03:00 +23°C° 0 mm 7 m/s 757 mmHg 67%
04:00 +23°C° 0 mm 7 m/s 757 mmHg 69%
05:00 +22°C° 0 mm 7 m/s 757 mmHg 70%
06:00 +23°C° 0 mm 7 m/s 758 mmHg 66%
07:00 +24°C° 0 mm 8 m/s 759 mmHg 61%
08:00 +26°C° 0 mm 8 m/s 759 mmHg 57%
09:00 +27°C° 0 mm 7 m/s 759 mmHg 50%
10:00 +29°C° 0 mm 7 m/s 759 mmHg 44%
11:00 +30°C° 0 mm 6 m/s 759 mmHg 38%
12:00 +30°C° 0 mm 7 m/s 758 mmHg 39%
13:00 +30°C° 0 mm 7 m/s 758 mmHg 41%
14:00 +30°C° 0 mm 7 m/s 757 mmHg 42%
15:00 +29°C° 0 mm 8 m/s 757 mmHg 45%
16:00 +28°C° 0 mm 8 m/s 757 mmHg 49%
17:00 +27°C° 0 mm 9 m/s 756 mmHg 52%
18:00 +26°C° 0 mm 9 m/s 757 mmHg 56%
19:00 +24°C° 0 mm 10 m/s 757 mmHg 60%
20:00 +24°C° 0 mm 10 m/s 757 mmHg 65%
21:00 +24°C° 0 mm 10 m/s 757 mmHg 65%
22:00 +24°C° 0 mm 9 m/s 757 mmHg 65%
23:00 +24°C° 0 mm 9 m/s 758 mmHg 65%

Demain, 14 Avril, Mercredi

Heure Température Précipitation Vent Pression Humidité
00:00 +23°C° 0 mm 7 m/s 757 mmHg 66%
01:00 +23°C° 0 mm 5 m/s 757 mmHg 68%
02:00 +23°C° 0 mm 4 m/s 757 mmHg 70%
03:00 +22°C° 0 mm 4 m/s 757 mmHg 72%
04:00 +22°C° 0 mm 4 m/s 757 mmHg 74%
05:00 +22°C° 0 mm 4 m/s 758 mmHg 77%
06:00 +23°C° 0 mm 5 m/s 758 mmHg 71%
07:00 +23°C° 0 mm 5 m/s 759 mmHg 65%
08:00 +24°C° 0 mm 6 m/s 759 mmHg 59%
09:00 +27°C° 0 mm 6 m/s 759 mmHg 53%
10:00 +28°C° 0 mm 6 m/s 759 mmHg 47%
11:00 +29°C° 0 mm 7 m/s 760 mmHg 41%
12:00 +29°C° 0 mm 7 m/s 759 mmHg 43%
13:00 +29°C° 0 mm 8 m/s 758 mmHg 45%
14:00 +28°C° 0 mm 8 m/s 757 mmHg 47%
15:00 +27°C° 0 mm 9 m/s 757 mmHg 52%
16:00 +27°C° 0 mm 9 m/s 757 mmHg 57%
17:00 +26°C° 0 mm 9 m/s 757 mmHg 62%
18:00 +24°C° 0 mm 9 m/s 757 mmHg 64%
19:00 +23°C° 0 mm 9 m/s 757 mmHg 67%
20:00 +23°C° 0 mm 9 m/s 758 mmHg 70%
21:00 +23°C° 0 mm 8 m/s 758 mmHg 72%
22:00 +23°C° 0 mm 8 m/s 758 mmHg 73%
23:00 +22°C° 0 mm 7 m/s 758 mmHg 74%

Après-demain, 15 Avril, Jeudi

Heure Température Précipitation Vent Pression Humidité
00:00 +22°C° 0 mm 6 m/s 758 mmHg 76%
01:00 +22°C° 0 mm 5 m/s 758 mmHg 78%
02:00 +22°C° 0 mm 4 m/s 757 mmHg 80%
03:00 +21°C° 0 mm 4 m/s 758 mmHg 82%
04:00 +21°C° 0 mm 4 m/s 758 mmHg 83%
05:00 +21°C° 0 mm 4 m/s 758 mmHg 85%
06:00 +22°C° 0 mm 4 m/s 758 mmHg 81%
07:00 +22°C° 0 mm 4 m/s 759 mmHg 77%
08:00 +23°C° 0 mm 4 m/s 759 mmHg 72%
09:00 +25°C° 0 mm 5 m/s 759 mmHg 69%
10:00 +24°C° 0 mm 6 m/s 759 mmHg 66%
11:00 +26°C° 0 mm 6 m/s 759 mmHg 62%
12:00 +26°C° 0 mm 6 m/s 759 mmHg 62%
13:00 +26°C° 0 mm 6 m/s 758 mmHg 62%
14:00 +26°C° 0 mm 6 m/s 758 mmHg 62%
15:00 +26°C° 0 mm 6 m/s 758 mmHg 66%
16:00 +24°C° 0 mm 7 m/s 757 mmHg 69%
17:00 +23°C° 0 mm 7 m/s 757 mmHg 73%
18:00 +23°C° 0 mm 7 m/s 757 mmHg 77%
19:00 +22°C° 0 mm 8 m/s 758 mmHg 81%
20:00 +22°C° 0 mm 8 m/s 758 mmHg 85%
21:00 +22°C° 0 mm 8 m/s 758 mmHg 85%
22:00 +22°C° 0 mm 8 m/s 758 mmHg 85%
23:00 +22°C° 0 mm 8 m/s 758 mmHg 85%

16 Avril, Vendredi

Heure Température Précipitation Vent Pression Humidité
00:00 +21°C° 0 mm 8 m/s 758 mmHg 85%
01:00 +21°C° 0 mm 7 m/s 757 mmHg 85%
02:00 +21°C° 0 mm 7 m/s 757 mmHg 86%
03:00 +21°C° 0 mm 7 m/s 757 mmHg 87%
04:00 +21°C° 0 mm 6 m/s 758 mmHg 87%
05:00 +21°C° 0 mm 6 m/s 758 mmHg 88%
06:00 +21°C° 0 mm 6 m/s 758 mmHg 83%
07:00 +22°C° 0 mm 6 m/s 759 mmHg 78%
08:00 +23°C° 0 mm 5 m/s 759 mmHg 73%
09:00 +23°C° 0 mm 5 m/s 759 mmHg 69%
10:00 +25°C° 0 mm 5 m/s 759 mmHg 65%
11:00 +26°C° 0 mm 5 m/s 759 mmHg 61%
12:00 +26°C° 0 mm 6 m/s 759 mmHg 61%
13:00 +26°C° 0 mm 6 m/s 758 mmHg 62%
14:00 +26°C° 0 mm 6 m/s 757 mmHg 62%
15:00 +24°C° 0 mm 6 m/s 757 mmHg 66%
16:00 +24°C° 0 mm 6 m/s 757 mmHg 70%
17:00 +23°C° 0 mm 7 m/s 757 mmHg 74%
18:00 +23°C° 0 mm 7 m/s 757 mmHg 77%
19:00 +22°C° 0 mm 7 m/s 757 mmHg 81%
20:00 +22°C° 0 mm 7 m/s 758 mmHg 84%
21:00 +21°C° 0 mm 7 m/s 758 mmHg 85%
22:00 +21°C° 0 mm 7 m/s 758 mmHg 85%
23:00 +21°C° 0 mm 7 m/s 758 mmHg 85%

17 Avril, Samedi

Heure Température Précipitation Vent Pression Humidité
00:00 +21°C° 0 mm 7 m/s 758 mmHg 86%
01:00 +21°C° 0 mm 8 m/s 757 mmHg 86%
02:00 +21°C° 0 mm 8 m/s 757 mmHg 87%
03:00 +21°C° 0 mm 8 m/s 757 mmHg 87%
04:00 +21°C° 0 mm 8 m/s 757 mmHg 87%
05:00 +21°C° 0 mm 7 m/s 757 mmHg 87%
06:00 +21°C° 0 mm 7 m/s 758 mmHg 82%
07:00 +22°C° 0 mm 7 m/s 758 mmHg 78%
08:00 +23°C° 0 mm 6 m/s 759 mmHg 73%
09:00 +23°C° 0 mm 6 m/s 759 mmHg 68%
10:00 +24°C° 0 mm 6 m/s 759 mmHg 63%
11:00 +26°C° 0 mm 5 m/s 759 mmHg 58%
12:00 +26°C° 0 mm 5 m/s 758 mmHg 58%
13:00 +26°C° 0 mm 5 m/s 758 mmHg 58%
14:00 +26°C° 0 mm 5 m/s 757 mmHg 58%
15:00 +26°C° 0 mm 5 m/s 757 mmHg 62%
16:00 +25°C° 0 mm 5 m/s 757 mmHg 66%
17:00 +23°C° 0 mm 6 m/s 757 mmHg 70%
18:00 +23°C° 0 mm 6 m/s 757 mmHg 75%
19:00 +22°C° 0 mm 6 m/s 758 mmHg 79%
20:00 +22°C° 0 mm 6 m/s 758 mmHg 83%
21:00 +22°C° 0 mm 6 m/s 758 mmHg 84%
22:00 +22°C° 0 mm 6 m/s 759 mmHg 84%
23:00 +21°C° 0 mm 6 m/s 759 mmHg 85%

18 Avril, Dimanche

Heure Température Précipitation Vent Pression Humidité
00:00 +21°C° 0 mm 6 m/s 759 mmHg 85%
01:00 +21°C° 0 mm 6 m/s 758 mmHg 86%
02:00 +21°C° 0 mm 7 m/s 758 mmHg 87%
03:00 +21°C° 0 mm 7 m/s 758 mmHg 87%
04:00 +21°C° 0 mm 7 m/s 758 mmHg 87%
05:00 +21°C° 0 mm 7 m/s 758 mmHg 87%
06:00 +22°C° 0 mm 6 m/s 758 mmHg 83%
07:00 +22°C° 0 mm 6 m/s 759 mmHg 79%
08:00 +23°C° 0 mm 6 m/s 760 mmHg 75%
09:00 +24°C° 0 mm 6 m/s 760 mmHg 69%
10:00 +26°C° 0 mm 5 m/s 760 mmHg 63%
11:00 +27°C° 0 mm 5 m/s 760 mmHg 57%
12:00 +27°C° 0 mm 5 m/s 759 mmHg 56%
13:00 +27°C° 0 mm 5 m/s 759 mmHg 56%
14:00 +27°C° 0 mm 5 m/s 758 mmHg 55%
15:00 +26°C° 0 mm 5 m/s 758 mmHg 59%
16:00 +26°C° 0 mm 5 m/s 758 mmHg 63%
17:00 +24°C° 0 mm 6 m/s 758 mmHg 67%
18:00 +23°C° 0 mm 6 m/s 758 mmHg 72%
19:00 +23°C° 0 mm 6 m/s 759 mmHg 77%
20:00 +22°C° 0 mm 6 m/s 759 mmHg 82%
21:00 +22°C° 0 mm 6 m/s 759 mmHg 83%
22:00 +22°C° 0 mm 6 m/s 759 mmHg 84%
23:00 +22°C° 0 mm 6 m/s 760 mmHg 85%
Voir plus

Nous avons besoin de votre consentement

Meteoprog et ses fournisseurs de services peuvent stocker et accéder à des données personnelles telles que des cookies, des identifiants d'appareils ou d'autres technologies similaires sur votre appareil et traiter ces données pour personnaliser le contenu et les publicités, ainsi que pour fournir des fonctionnalités de médias sociaux et analyser le trafic.

  • Stocker et/ou accéder à des informations sur votre appareil

    Des cookies, des identifiants d'appareils ou d'autres informations peuvent être stockés ou accessibles sur votre appareil aux fins indiquées ci-dessus.

  • Annonces et contenus personnalisés, mesure des annonces et des contenus, connaissance de l'audience et développement de produits

    Les annonces et le contenu peuvent être personnalisés en fonction d'un profil. D'autres données peuvent être ajoutées pour mieux personnaliser les annonces et le contenu. Les performances des publicités et du contenu peuvent être mesurées. Il est possible d'obtenir des informations sur le public qui a vu les publicités et le contenu. Ces données peuvent être utilisées pour développer ou améliorer l'expérience de l'utilisateur, les systèmes et les logiciels.

En cliquant sur "J'accepte", vous autorisez l'utilisation de cookies, des identifiants d'appareils, des balises web ou d'autres technologies similaires. Vos paramètres peuvent être modifiés dans le navigateur de votre appareil.

Dans certains cas, des intérêts légitimes peuvent être invoqués plutôt qu'un consentement. Vous pouvez en savoir plus à ce sujet dans notre Politique de confidentialité et de cookies.